LTU1281 EDDF-EDDS

Flight info

Callsign LTU1281
Flight time 0h 32m
Altitude 16000
Route ANEKI2L/18 ANEKI NEKLO INKAM KRH BADSO
Aircraft A320/M-SDE3FGHIRWY/LB1

Departure

Time 2026-05-05 09:04
Airport Frankfurt Main Airport (EDDF)

Arrival

Time 2026-05-05 09:37
Airport Stuttgart Airport (EDDS)
Time Latitude Longitude Altitude Speed Heading
2026-05-05 08:32 50.04853 8.56946 362 ft 0 kts 295°
2026-05-05 08:48 50.04849 8.56961 361 ft 2 kts 292°
2026-05-05 08:49 50.04842 8.56985 363 ft 2 kts 296°
2026-05-05 08:49 50.04833 8.57007 362 ft 2 kts 299°
2026-05-05 08:49 50.04827 8.57031 361 ft 2 kts 246°
2026-05-05 08:49 50.04832 8.57043 362 ft 0 kts 191°
2026-05-05 08:51 50.04831 8.57043 362 ft 1 kts 191°
2026-05-05 08:51 50.04794 8.57032 361 ft 8 kts 197°
2026-05-05 08:51 50.04735 8.56997 364 ft 10 kts 202°
2026-05-05 08:52 50.04665 8.56947 363 ft 12 kts 205°
2026-05-05 08:52 50.04582 8.56903 361 ft 14 kts 195°
2026-05-05 08:52 50.04504 8.56874 360 ft 10 kts 193°
2026-05-05 08:52 50.04447 8.56807 364 ft 11 kts 244°
2026-05-05 08:53 50.04418 8.56683 361 ft 14 kts 252°
2026-05-05 08:53 50.04381 8.56524 362 ft 18 kts 249°
2026-05-05 08:53 50.04334 8.56344 358 ft 19 kts 246°
2026-05-05 08:53 50.04274 8.56127 353 ft 24 kts 248°
2026-05-05 08:54 50.04224 8.55869 362 ft 26 kts 258°
2026-05-05 08:54 50.04159 8.55606 362 ft 27 kts 248°
2026-05-05 08:54 50.04096 8.55341 363 ft 23 kts 249°
2026-05-05 08:54 50.04038 8.55090 361 ft 26 kts 252°
2026-05-05 08:55 50.03970 8.54810 354 ft 26 kts 248°
2026-05-05 08:55 50.03913 8.54583 346 ft 19 kts 251°
2026-05-05 08:55 50.03869 8.54391 350 ft 15 kts 246°
2026-05-05 08:55 50.03810 8.54248 353 ft 16 kts 240°
2026-05-05 08:56 50.03764 8.54071 351 ft 20 kts 249°
2026-05-05 08:56 50.03710 8.53848 347 ft 24 kts 249°
2026-05-05 08:56 50.03665 8.53660 336 ft 11 kts 250°
2026-05-05 08:56 50.03643 8.53559 334 ft 9 kts 253°
2026-05-05 08:57 50.03638 8.53533 337 ft 1 kts 253°
2026-05-05 08:57 50.03635 8.53516 334 ft 3 kts 253°
2026-05-05 08:57 50.03622 8.53470 337 ft 8 kts 244°
2026-05-05 08:57 50.03594 8.53374 334 ft 12 kts 247°
2026-05-05 08:58 50.03560 8.53243 335 ft 14 kts 252°
2026-05-05 08:58 50.03527 8.53098 337 ft 14 kts 250°
2026-05-05 08:58 50.03491 8.52945 351 ft 15 kts 250°
2026-05-05 08:58 50.03455 8.52807 350 ft 11 kts 248°
2026-05-05 08:59 50.03433 8.52723 354 ft 2 kts 248°
2026-05-05 08:59 50.03433 8.52721 354 ft 0 kts 248°
2026-05-05 09:01 50.03431 8.52714 355 ft 2 kts 249°
2026-05-05 09:01 50.03425 8.52688 350 ft 4 kts 250°
2026-05-05 09:02 50.03411 8.52637 353 ft 7 kts 242°
2026-05-05 09:02 50.03372 8.52596 351 ft 4 kts 189°
2026-05-05 09:02 50.03366 8.52595 350 ft 0 kts 184°
2026-05-05 09:03 50.03363 8.52595 350 ft 2 kts 184°
2026-05-05 09:03 50.03291 8.52593 354 ft 33 kts 179°
2026-05-05 09:03 50.02797 8.52599 355 ft 105 kts 179°
2026-05-05 09:04 50.01885 8.52609 345 ft 157 kts 180°
2026-05-05 09:04 50.00795 8.52555 960 ft 148 kts 182°
2026-05-05 09:04 49.99753 8.52579 1578 ft 151 kts 177°
2026-05-05 09:04 49.98697 8.52666 2121 ft 156 kts 176°
2026-05-05 09:05 49.97530 8.52770 2419 ft 178 kts 176°
2026-05-05 09:05 49.96217 8.52882 2707 ft 201 kts 177°
2026-05-05 09:05 49.94743 8.53000 3078 ft 221 kts 177°
2026-05-05 09:05 49.93168 8.53121 3742 ft 229 kts 177°
2026-05-05 09:06 49.91572 8.53237 4624 ft 230 kts 178°
2026-05-05 09:06 49.89968 8.53349 5489 ft 231 kts 178°
2026-05-05 09:06 49.88358 8.53460 6380 ft 232 kts 178°
2026-05-05 09:06 49.86739 8.53570 7160 ft 235 kts 178°
2026-05-05 09:07 49.85071 8.53684 7961 ft 238 kts 178°
2026-05-05 09:07 49.83405 8.53796 8725 ft 242 kts 178°
2026-05-05 09:07 49.81711 8.53910 9487 ft 246 kts 178°
2026-05-05 09:07 49.80008 8.54023 10193 ft 250 kts 178°
2026-05-05 09:08 49.78264 8.54130 10913 ft 252 kts 181°
2026-05-05 09:08 49.76468 8.53942 11484 ft 261 kts 186°
2026-05-05 09:08 49.74637 8.53698 12122 ft 266 kts 186°
2026-05-05 09:08 49.72805 8.53450 13059 ft 255 kts 186°
2026-05-05 09:09 49.71115 8.53222 14244 ft 236 kts 186°
2026-05-05 09:09 49.69519 8.53010 15044 ft 232 kts 186°
2026-05-05 09:09 49.67886 8.52793 15686 ft 235 kts 186°
2026-05-05 09:09 49.66184 8.52567 15863 ft 258 kts 186°
2026-05-05 09:10 49.64338 8.52320 15893 ft 272 kts 186°
2026-05-05 09:10 49.62432 8.52065 15887 ft 276 kts 186°
2026-05-05 09:10 49.60519 8.51813 15886 ft 277 kts 186°
2026-05-05 09:10 49.58599 8.51565 15891 ft 277 kts 186°
2026-05-05 09:11 49.56680 8.51319 15892 ft 277 kts 186°
2026-05-05 09:11 49.54801 8.51076 15884 ft 265 kts 186°
2026-05-05 09:11 49.53010 8.50842 15882 ft 251 kts 186°
2026-05-05 09:11 49.51299 8.50620 15759 ft 244 kts 186°
2026-05-05 09:12 49.49617 8.50398 15571 ft 240 kts 186°
2026-05-05 09:12 49.47952 8.50180 15522 ft 248 kts 186°
2026-05-05 09:12 49.46188 8.49944 15469 ft 259 kts 186°
2026-05-05 09:12 49.44381 8.49700 15418 ft 262 kts 186°
2026-05-05 09:13 49.42562 8.49459 15358 ft 262 kts 186°
2026-05-05 09:13 49.40750 8.49222 15300 ft 262 kts 186°
2026-05-05 09:13 49.38933 8.48983 15245 ft 262 kts 186°
2026-05-05 09:13 49.37119 8.48745 15185 ft 261 kts 186°
2026-05-05 09:14 49.35306 8.48509 15127 ft 261 kts 186°
2026-05-05 09:14 49.33490 8.48320 15071 ft 261 kts 182°
2026-05-05 09:14 49.31672 8.48406 15004 ft 262 kts 177°
2026-05-05 09:14 49.29880 8.48762 14937 ft 255 kts 172°
2026-05-05 09:15 49.28188 8.49361 14885 ft 246 kts 166°
2026-05-05 09:15 49.26563 8.50193 14829 ft 256 kts 161°
2026-05-05 09:15 49.24826 8.51387 14778 ft 289 kts 155°
2026-05-05 09:15 49.23080 8.52960 14714 ft 299 kts 150°
2026-05-05 09:16 49.21292 8.54697 14648 ft 302 kts 150°
2026-05-05 09:16 49.19516 8.56412 14579 ft 302 kts 152°
2026-05-05 09:16 49.17666 8.57889 14512 ft 300 kts 159°
2026-05-05 09:16 49.15725 8.58988 14455 ft 298 kts 166°
2026-05-05 09:17 49.13703 8.59703 14384 ft 296 kts 173°
2026-05-05 09:17 49.11660 8.60029 14317 ft 295 kts 179°
2026-05-05 09:17 49.09612 8.59982 14254 ft 294 kts 186°
2026-05-05 09:17 49.07581 8.59675 14195 ft 293 kts 187°
2026-05-05 09:18 49.05548 8.59364 14128 ft 293 kts 187°
2026-05-05 09:18 49.03517 8.59054 14067 ft 293 kts 187°
2026-05-05 09:18 49.01492 8.58748 14006 ft 293 kts 186°
2026-05-05 09:18 48.99462 8.58533 13945 ft 293 kts 182°
2026-05-05 09:19 48.97427 8.58649 13883 ft 293 kts 176°
2026-05-05 09:19 48.95399 8.58905 13817 ft 293 kts 176°
2026-05-05 09:19 48.93375 8.59148 13753 ft 292 kts 176°
2026-05-05 09:19 48.91372 8.59709 13699 ft 294 kts 165°
2026-05-05 09:20 48.89477 8.60864 13637 ft 295 kts 154°
2026-05-05 09:20 48.87771 8.62607 13554 ft 298 kts 142°
2026-05-05 09:20 48.86318 8.64877 13486 ft 300 kts 130°
2026-05-05 09:20 48.85194 8.67555 13404 ft 303 kts 119°
2026-05-05 09:21 48.84441 8.70540 13337 ft 305 kts 108°
2026-05-05 09:21 48.84098 8.73730 13265 ft 309 kts 96°
2026-05-05 09:21 48.84192 8.76994 13187 ft 311 kts 84°
2026-05-05 09:21 48.84600 8.80228 13109 ft 312 kts 81°
2026-05-05 09:22 48.85016 8.83460 13046 ft 312 kts 82°
2026-05-05 09:22 48.85426 8.86685 12967 ft 311 kts 82°
2026-05-05 09:22 48.85834 8.89911 12894 ft 311 kts 82°
2026-05-05 09:22 48.86238 8.93121 12815 ft 310 kts 82°
2026-05-05 09:23 48.86640 8.96337 12750 ft 310 kts 82°
2026-05-05 09:23 48.87041 8.99550 12674 ft 309 kts 82°
2026-05-05 09:23 48.87440 9.02756 12602 ft 309 kts 81°
2026-05-05 09:23 48.87839 9.05968 12331 ft 310 kts 81°
2026-05-05 09:24 48.88240 9.09213 11774 ft 316 kts 81°
2026-05-05 09:24 48.88649 9.12525 11162 ft 322 kts 81°
2026-05-05 09:24 48.88924 9.14754 10780 ft 325 kts 81°
2026-05-05 09:24 48.89335 9.18079 10660 ft 314 kts 81°
2026-05-05 09:25 48.89732 9.21267 10591 ft 302 kts 81°
2026-05-05 09:25 48.90117 9.24371 10471 ft 296 kts 81°
2026-05-05 09:25 48.90455 9.27454 10331 ft 294 kts 88°
2026-05-05 09:25 48.90190 9.30475 10195 ft 289 kts 111°
2026-05-05 09:26 48.89174 9.33062 10060 ft 285 kts 134°
2026-05-05 09:26 48.87588 9.34823 9944 ft 283 kts 157°
2026-05-05 09:26 48.85687 9.35520 9813 ft 282 kts 178°
2026-05-05 09:26 48.83733 9.35066 9194 ft 292 kts 202°
2026-05-05 09:27 48.82021 9.33381 8651 ft 298 kts 225°
2026-05-05 09:27 48.80879 9.30756 8113 ft 303 kts 248°
2026-05-05 09:27 48.80521 9.27592 7572 ft 309 kts 269°
2026-05-05 09:27 48.80449 9.24319 7011 ft 312 kts 261°
2026-05-05 09:28 48.79895 9.21144 6458 ft 313 kts 246°
2026-05-05 09:28 48.78799 9.18290 5879 ft 315 kts 231°
2026-05-05 09:28 48.77243 9.15955 5309 ft 316 kts 219°
2026-05-05 09:28 48.75569 9.13826 4873 ft 313 kts 219°
2026-05-05 09:29 48.73908 9.11716 4576 ft 305 kts 219°
2026-05-05 09:29 48.72320 9.09699 4505 ft 290 kts 219°
2026-05-05 09:29 48.70845 9.07823 4435 ft 266 kts 219°
2026-05-05 09:29 48.69487 9.06100 4371 ft 243 kts 219°
2026-05-05 09:30 48.68206 9.04475 4283 ft 238 kts 219°
2026-05-05 09:30 48.66948 9.02878 4187 ft 233 kts 219°
2026-05-05 09:30 48.65738 9.01338 4089 ft 222 kts 219°
2026-05-05 09:30 48.64589 8.99876 4005 ft 210 kts 220°
2026-05-05 09:31 48.63483 8.98466 3926 ft 206 kts 220°
2026-05-05 09:31 48.62333 8.97197 3821 ft 204 kts 203°
2026-05-05 09:31 48.60961 8.96821 3829 ft 202 kts 173°
2026-05-05 09:31 48.59651 8.97533 3854 ft 202 kts 144°
2026-05-05 09:32 48.58762 8.99149 3807 ft 202 kts 113°
2026-05-05 09:32 48.58540 9.01153 3706 ft 188 kts 84°
2026-05-05 09:32 48.58993 9.02937 3597 ft 183 kts 48°
2026-05-05 09:32 48.59936 9.04152 3459 ft 165 kts 43°
2026-05-05 09:33 48.60727 9.05290 3337 ft 154 kts 44°
2026-05-05 09:33 48.61492 9.06397 3221 ft 150 kts 44°
2026-05-05 09:33 48.62240 9.07481 3167 ft 149 kts 43°
2026-05-05 09:33 48.62984 9.08559 3039 ft 148 kts 43°
2026-05-05 09:34 48.63724 9.09633 2888 ft 147 kts 43°
2026-05-05 09:34 48.64471 9.10717 2722 ft 147 kts 43°
2026-05-05 09:34 48.65207 9.11785 2545 ft 147 kts 43°
2026-05-05 09:34 48.65940 9.12850 2389 ft 146 kts 43°
2026-05-05 09:35 48.66670 9.13912 2207 ft 145 kts 44°
2026-05-05 09:35 48.67764 9.16434 1848 ft 145 kts 59°
2026-05-05 09:35 48.68161 9.17845 1602 ft 145 kts 66°
2026-05-05 09:36 48.68459 9.19284 1431 ft 147 kts 75°
2026-05-05 09:36 48.68724 9.20762 1292 ft 139 kts 73°
2026-05-05 09:36 48.68954 9.22027 1273 ft 108 kts 73°
2026-05-05 09:36 48.69119 9.22864 1267 ft 58 kts 74°
2026-05-05 09:37 48.69198 9.23277 1268 ft 36 kts 73°
2026-05-05 09:37 48.69293 9.23553 1261 ft 18 kts 49°
2026-05-05 09:37 48.69378 9.23674 1266 ft 16 kts 54°
2026-05-05 09:37 48.69477 9.23711 1267 ft 17 kts 336°
2026-05-05 09:38 48.69503 9.23554 1270 ft 18 kts 254°
2026-05-05 09:38 48.69473 9.23357 1268 ft 21 kts 259°
2026-05-05 09:38 48.69452 9.23133 1267 ft 23 kts 261°
2026-05-05 09:38 48.69386 9.22914 1270 ft 24 kts 251°
2026-05-05 09:39 48.69337 9.22663 1268 ft 26 kts 254°
2026-05-05 09:39 48.69286 9.22392 1269 ft 27 kts 254°
2026-05-05 09:39 48.69233 9.22111 1272 ft 29 kts 253°
2026-05-05 09:39 48.69176 9.21817 1273 ft 30 kts 254°
2026-05-05 09:40 48.69118 9.21511 1270 ft 31 kts 254°
2026-05-05 09:40 48.69058 9.21197 1273 ft 32 kts 254°
2026-05-05 09:40 48.68997 9.20872 1269 ft 33 kts 254°
2026-05-05 09:40 48.68943 9.20587 1270 ft 26 kts 253°
2026-05-05 09:41 48.68892 9.20319 1267 ft 27 kts 253°
2026-05-05 09:41 48.68845 9.20075 1275 ft 18 kts 254°
2026-05-05 09:41 48.68827 9.19917 1269 ft 13 kts 287°
2026-05-05 09:41 48.68898 9.19829 1267 ft 14 kts 315°
2026-05-05 09:42 48.68953 9.19784 1267 ft 1 kts 342°
2026-05-05 09:42 48.68965 9.19778 1271 ft 0 kts 343°
2026-05-05 09:42 48.68966 9.19778 1271 ft 0 kts 343°